Home   Weather   Whitehorse   Past weeks

Flag for Canada Past Weather in Whitehorse, Yukon, Canada — Yesterday and Last 2 Weeks

19 °F

Light snow. Low clouds.

Feels Like: 9 °F
Forecast: 6 / 19 °F
Wind: 9 mph from North

Location: Whitehorse

Current Time: Oct 24, 2016 at 6:30:16 PM

Latest Report: Oct 24, 2016 at 5:46 PM

Visibility: 2 mi

Pressure: 30.27 "Hg (27.88 "Hg at 640m altitude)

Humidity: 86%

Dew Point: 16 °F

Location of WhitehorseLocation

Past Weather in Whitehorse — Graph


Whitehorse Temperature Yesterday

Maximum temperature yesterday: 23 °F (at 2:00 PM)
Minimum temperature yesterday: 19 °F (at 4:00 AM)
Average temperature yesterday: 21 °F

High & Low Weather Summary for the Past Weeks

High46 °F (Oct 10, 5:00 PM)100% (Oct 13, 9:00 AM)30.37 "Hg (Oct 13, 9:00 AM)
Low16 °F (Oct 10, 8:00 AM)29% (Oct 12, 5:00 PM)29.40 "Hg (Oct 17, 5:00 AM)
Average29 °F76%29.82 "Hg
* Reported Oct 9 5:00 PM — Oct 24 5:00 PM, Whitehorse, Weather by CustomWeather, © 2016

Note: Actual official high and low records may vary slightly from our data, if they occured in-between our weather recording intervals... More about our weather records


Whitehorse Weather History for the Previous 24 Hours

Scroll right to see more
Time TempWeatherWind HumidityBarometerVisibility
5:00 PM
Mon, Oct 24
19 °FLight snow. Low clouds.13 mph86%30.26 "Hg3 mi
4:00 PM19 °FLight snow. Low clouds.12 mph86%30.27 "Hg1 mi
3:00 PM18 °FLight snow. Low clouds.13 mph86%30.27 "Hg2 mi
2:00 PM18 °FLight snow. Overcast.13 mph86%30.28 "Hg2 mi
1:53 PM18 °FLight snow. Overcast.9 mph86%30.28 "Hg1 mi
1:00 PM18 °FLight snow. Overcast.9 mph86%30.29 "Hg1 mi
12:00 PM16 °FLight snow. Overcast.12 mph86%30.29 "Hg1 mi
11:53 AM16 °FLight snow. Overcast.10 mph86%30.30 "Hg1 mi
11:00 AM16 °FLight snow. Overcast.14 mph86%30.29 "Hg1 mi
10:00 AM16 °FLight snow. Overcast.9 mph86%30.28 "Hg1 mi
9:00 AM18 °FLight snow. Mostly cloudy.9 mph79%30.27 "Hg2 mi
8:49 AM18 °FLight snow. Mostly cloudy.14 mph79%30.27 "Hg2 mi
8:00 AM19 °FLight snow. Mostly cloudy.9 mph73%30.26 "Hg15 mi
7:00 AM19 °FLight snow. Mostly cloudy.10 mph79%30.24 "Hg15 mi
6:00 AM19 °FLight snow. Mostly cloudy.10 mph73%30.24 "Hg15 mi
5:00 AM21 °FMostly cloudy.10 mph68%30.25 "Hg15 mi
4:00 AM21 °FMostly cloudy.7 mph68%30.25 "Hg15 mi
3:00 AM21 °FLight snow. Partly cloudy.10 mph68%30.25 "Hg15 mi
2:00 AM21 °FLight snow. Mostly cloudy.9 mph74%30.25 "Hg15 mi
1:00 AM21 °FLight snow. Mostly cloudy.10 mph74%30.25 "Hg15 mi
12:08 AM21 °FLight snow. Mostly cloudy.9 mph74%30.25 "Hg15 mi
11:00 PM
Sun, Oct 23
21 °FMostly cloudy.9 mph74%30.25 "Hg15 mi
10:00 PM21 °FMostly cloudy.10 mph74%30.24 "Hg15 mi
9:00 PM21 °FMostly cloudy.9 mph74%30.24 "Hg15 mi
8:00 PM21 °FMostly cloudy.8 mph74%30.24 "Hg15 mi
7:00 PM23 °FMostly cloudy.10 mph68%30.24 "Hg20 mi
6:00 PM23 °FLight snow. Mostly cloudy.8 mph74%30.24 "Hg20 mi
Weather by CustomWeather, © 2016

See weather overviewHow to use our weather pages